Date,TemperatureHighF,TemperatureAvgF,TemperatureLowF,DewpointHighF,DewpointAvgF,DewpointLowF,HumidityHigh,HumidityAvg,HumidityLow,PressureMaxIn,PressureMinIn,WindSpeedMaxMPH,WindSpeedAvgMPH,GustSpeedMaxMPH,PrecipitationSumIn
2013-3-1,62.7,53.7,48.0,37.0,35.1,33.0,60,50,36,29.93,29.82,5,0,16,0.00
2013-3-2,57.6,47.2,38.2,38.0,31.5,27.0,84,57,34,29.95,29.84,13,1,18,0.00
2013-3-3,46.7,42.2,36.9,33.0,28.2,26.0,77,59,45,30.06,29.92,6,0,15,0.00
2013-3-4,65.0,48.6,36.2,39.0,28.9,18.0,74,51,24,30.15,30.04,5,0,11,0.00
2013-3-5,76.5,59.0,39.8,56.0,43.6,35.0,88,61,25,30.11,29.82,10,1,19,0.00
2013-3-6,65.0,53.3,44.6,59.0,34.5,26.0,84,51,27,30.06,29.79,11,1,19,0.01
2013-3-7,65.6,49.5,37.3,42.0,33.9,29.0,83,58,30,30.17,30.06,4,0,14,0.00
2013-3-8,71.8,51.6,37.2,49.0,40.9,35.0,94,71,29,30.16,30.08,4,0,14,0.00
2013-3-9,68.6,53.9,40.2,52.0,44.0,38.0,96,72,40,30.20,30.10,5,0,11,0.00
2013-3-10,73.9,61.1,47.0,59.0,50.9,44.0,95,72,45,30.15,30.06,7,1,13,0.00
2013-3-11,76.7,65.2,51.4,61.0,54.6,49.0,94,71,46,30.07,29.82,4,0,9,0.00
2013-3-12,69.1,65.1,55.0,68.0,58.5,46.0,95,80,54,29.94,29.76,6,0,10,0.09
2013-3-13,72.0,59.5,49.8,46.0,35.6,30.0,74,45,21,30.11,29.94,6,0,12,0.00
2013-3-14,63.5,51.6,41.1,36.0,28.9,24.0,75,43,25,30.23,30.09,10,0,10,0.00
2013-3-15,74.7,53.4,35.6,43.0,35.7,28.0,94,58,24,30.21,30.04,3,0,7,0.00
2013-3-16,82.0,63.9,49.8,51.0,46.1,40.0,87,56,27,30.09,29.92,9,0,11,0.00
2013-3-17,77.7,64.5,48.3,55.0,46.4,40.0,86,56,27,30.05,29.90,6,0,12,0.00
2013-3-18,82.4,69.0,60.5,63.0,59.0,55.0,92,72,46,29.98,29.78,5,0,11,0.01
2013-3-19,82.4,69.7,61.2,63.0,58.6,55.0,92,70,45,29.95,29.82,4,0,10,0.13
2013-3-20,67.1,60.3,50.7,59.0,52.3,47.0,92,76,59,29.94,29.76,9,0,12,0.30
2013-3-21,69.9,55.3,45.2,49.0,35.2,24.0,93,53,18,29.89,29.78,10,0,10,0.00
2013-3-22,66.8,55.6,44.8,48.0,39.3,31.0,77,57,33,29.98,29.86,5,0,10,0.00
2013-3-23,68.4,60.1,52.5,65.0,57.6,47.0,98,91,77,29.93,29.71,3,0,11,2.72
2013-3-24,84.9,71.1,61.5,73.0,65.5,61.0,100,85,46,29.73,29.45,8,1,21,0.26
2013-3-25,67.8,60.1,52.3,61.0,36.7,24.0,83,46,20,29.95,29.55,11,1,17,0.00
2013-3-26,58.4,48.8,40.8,29.0,25.8,22.0,54,42,27,30.18,29.96,6,0,17,0.00
2013-3-27,62.4,48.7,37.6,36.0,28.7,26.0,75,48,27,30.24,30.13,7,0,8,0.00
2013-3-28,70.6,52.1,36.5,41.0,34.6,27.0,92,58,20,30.23,30.13,5,0,11,0.00
2013-3-29,75.1,55.0,39.5,51.0,39.5,31.0,95,63,22,30.26,30.12,5,0,10,0.00
2013-3-30,79.4,61.4,42.6,53.0,43.7,37.0,93,59,24,30.20,30.03,8,0,13,0.00
2013-3-31,84.1,67.3,51.7,56.0,50.1,43.0,85,57,33,30.06,29.89,8,1,16,0.00